Regional Weather Roundup
Issued by NWS Albany, NY

Current Version | Previous Version | Text Only | Print | Product List | Glossary On
Versions: 1 2 3 4 5 6 7 8 9 10 11 12 13 14 15 16 17 18 19 20 21 22 23 24 25 26 27 28 29 30 31 32 33 34 35 36 37 38 39 40 41 42 43 44 45 46 47 48 49 50
000 ASUS41 KALY 310510 RWRALY NEW YORK STATE HOURLY WEATHER ROUNDUP NATIONAL WEATHER SERVICE ALBANY NY 100 AM EDT TUE MAR 31 2015 NOTE: "FAIR" INDICATES FEW OR NO CLOUDS BELOW 12,000 FEET WITH NO SIGNIFICANT WEATHER AND/OR NO OBSTRUCTIONS TO VISIBILITY. NYZ032-033-038>043-046>054-057>066-NYZ062>081-310600- EAST CITY SKY/WX TMP DP RH WIND PRES REMARKS ALBANY MOCLDY 39 27 62 W14 29.78F WCI 31 GLENS FALLS MOCLDY 37 27 67 SW7 29.73S WCI 32 POUGHKEEPSIE PTCLDY 38 31 76 SW6 29.83S WCI 33 NEWBURGH CLEAR 34 32 93 W12 29.85S WCI 25 MONTGOMERY CLEAR 37 30 75 VRB3 29.83R WHITE PLAINS CLEAR 40 28 62 W10 29.82F WCI 33 ISLIP CLEAR 42 29 59 W10 29.83S NEW YORK CITY MOCLDY 44 31 60 NW16G23 29.86F CENTRAL PARK CLOUDY 44 31 60 W8 29.88F $$ NYZ005>009-017-018-044>046-055-056-310600- CENTRAL CITY SKY/WX TMP DP RH WIND PRES REMARKS FULTON CLOUDY 36 27 69 W15 29.84S WCI 27 SYRACUSE CLOUDY 35 28 75 W12 29.84S WCI 27 ROME FLURRIES 35 28 75 W9 29.83R WCI 28 ELMIRA CLEAR 32 24 72 W6 29.87S WCI 26 BINGHAMTON PTCLDY 29 26 89 W7 29.81S WCI 22 MONTICELLO PTCLDY 32 30 93 NW12 29.81F WCI 23 $$ NYZ026>034-041>043-310600- NORTH CITY SKY/WX TMP DP RH WIND PRES REMARKS WATERTOWN CLOUDY 35 29 78 SW5 29.81R WCI 31 FORT DRUM NOT AVBL MASSENA CLOUDY 34 24 67 W13 29.77S WCI 25 SARANAC LAKE CLOUDY 28 23 81 VRB5 29.68R WCI 23 PLATTSBURGH CLOUDY 35 27 72 VRB5 29.70R WCI 31 $$ NYZ001>004-010>016-019>021-310600- WEST CITY SKY/WX TMP DP RH WIND PRES REMARKS NIAGARA FALLS CLEAR 30 22 72 W10 29.91F WCI 21 BUFFALO CLEAR 32 22 66 W10 29.91S WCI 24 DUNKIRK CLEAR 33 24 69 W8 29.95S WCI 26 JAMESTOWN CLEAR 28 23 80 W7 29.90F WCI 21 WELLSVILLE CLEAR 29 22 75 W13 29.85F WCI 19 ROCHESTER PTCLDY 32 24 72 W10 29.89R WCI 24 PENN YAN CLEAR 34 22 61 W7 29.87R WCI 28 $$ KEY WCI = WIND CHILL INDEX VSB = VISIBILITY HX = HEAT INDEX $$

USA.gov is the U.S. government's official web portal to all federal, state and local government web resources and services.